Flag for Russia Weather past 2 weeks in Samara, Russia

Now
45 °F

Overcast.


Feels Like: 39 °F
Forecast: 37 / 52 °F
Wind: 10 mph from Northwest

Location: Samara

Current Time: Sep 17, 2014 at 8:40:09 PM

Latest Report: Sep 17, 2014 at 8:00 PM


Visibility: N/A

Pressure: 30.15 "Hg

Humidity: 46%

Dew point: 25 °F

Location of SamaraLocation

Historic Weather in Samara — Graph

°F

Samara temperature yesterday

Maximum temperature yesterday: 57 °F (at 3:00 PM)
Minimum temperature yesterday: 41 °F (at 11:30 PM)
Average temperature yesterday: 52 °F

Past Weeks' High & Low Weather Summary

 TemperatureHumidityPressure
High75 °F (Sep 12, 4:00 PM)94% (Sep 15, 7:30 AM)30.39 "Hg (Sep 15, 7:30 AM)
Low36 °F (Sep 17, 6:00 AM)18% (Sep 12, 5:00 PM)29.92 "Hg (Sep 16, 1:00 PM)
Average57 °F55%30.14 "Hg
* Reported Sep 2 7:00 PM — Sep 17 7:30 PM, Samara, Weather by CustomWeather, © 2014

Note: Actual official high and low records may vary slightly from our data, if they occured in-between our weather recording intervals... More about our weather records

Advertising

Samara weather history for previous 24 hours

 ConditionsComfort  
Time TempWeatherWind HumidityBarometerVisibility
7:30 PM
Sep 17
45 °FCloudy.10 mph46%30.15 "HgN/A
7:00 PM45 °FCloudy.10 mph42%30.15 "HgN/A
6:30 PM45 °FBroken clouds.10 mph42%30.12 "HgN/A
6:00 PM45 °FBroken clouds.13 mph42%30.12 "HgN/A
5:30 PM46 °FBroken clouds.13 mph40%30.12 "HgN/A
5:00 PM46 °FBroken clouds.10 mph43%30.12 "HgN/A
4:30 PM46 °FBroken clouds.13 mph43%30.12 "HgN/A
4:00 PM46 °FCloudy.10 mph40%30.12 "HgN/A
3:30 PM46 °FBroken clouds.13 mph37%30.12 "HgN/A
3:00 PM48 °FBroken clouds.15 mph34%30.12 "HgN/A
2:30 PM46 °FCloudy.13 mph50%30.12 "HgN/A
2:00 PM46 °FCloudy.13 mph43%30.12 "HgN/A
1:30 PM46 °FCloudy.15 mph46%30.12 "HgN/A
1:00 PM46 °FCloudy.13 mph43%30.12 "HgN/A
12:30 PM46 °FBroken clouds.10 mph46%30.12 "HgN/A
12:00 PM46 °FBroken clouds.10 mph46%30.12 "HgN/A
11:30 AM48 °FBroken clouds.13 mph43%30.15 "HgN/A
11:00 AM48 °FBroken clouds.13 mph40%30.15 "HgN/A
10:30 AM46 °FBroken clouds.15 mph46%30.15 "HgN/A
10:00 AM45 °FBroken clouds.15 mph53%30.15 "HgN/A
9:30 AM43 °FBroken clouds.10 mph61%30.15 "HgN/A
9:00 AM41 °FBroken clouds.10 mph66%30.15 "HgN/A
8:30 AM41 °FScattered clouds.13 mph66%30.12 "HgN/A
8:00 AM39 °FScattered clouds.13 mph70%30.12 "HgN/A
7:30 AM37 °FScattered clouds.13 mph75%30.12 "HgN/A
7:00 AM37 °FPassing clouds.10 mph75%30.12 "HgN/A
6:30 AM36 °FClear.10 mph81%30.09 "Hg10 mi
6:00 AM36 °FClear.10 mph75%30.09 "Hg10 mi
5:30 AM37 °FClear.10 mph70%30.09 "Hg10 mi
5:00 AM37 °FClear.10 mph70%30.09 "Hg10 mi
4:30 AM37 °FClear.8 mph70%30.09 "Hg10 mi
4:00 AM37 °FClear.10 mph70%30.09 "Hg10 mi
3:30 AM37 °FClear.10 mph70%30.09 "Hg10 mi
3:00 AM39 °FClear.10 mph65%30.09 "Hg10 mi
2:30 AM39 °FClear.10 mph65%30.07 "Hg10 mi
2:00 AM39 °FClear.10 mph65%30.07 "Hg10 mi
1:30 AM39 °FClear.10 mph65%30.07 "Hg10 mi
1:00 AM39 °FClear.13 mph70%30.07 "Hg10 mi
12:30 AM41 °FClear.10 mph66%30.07 "Hg10 mi
12:00 AM41 °FClear.8 mph66%30.07 "Hg10 mi
11:30 PM
Sep 16
41 °FClear.8 mph61%30.07 "Hg10 mi
11:00 PM43 °FClear.8 mph61%30.07 "Hg10 mi
10:30 PM43 °FClear.8 mph61%30.07 "Hg10 mi
10:00 PM43 °FClear.8 mph61%30.04 "Hg10 mi
9:30 PM43 °FClear.8 mph66%30.04 "Hg10 mi
9:00 PM43 °FClear.8 mph66%30.04 "Hg10 mi
8:30 PM45 °FClear.8 mph61%30.04 "Hg10 mi
8:00 PM45 °FPartly cloudy.8 mph66%30.01 "HgN/A
Weather by CustomWeather, © 2014

See weather overviewHow to use our weather pages